Ferrara Airport LIPF

Flugplatz Daten

Name: Ferrara Airport

Ident: LIPF

Lat: 44,81600189

Long: 11,61340046

Platzhöhe: 20 ft

IataCode:

City: Ferrara

Metar

2022/08/13 17:55
LIPF 131755Z 12003KT CAVOK 27/12 Q1012 RMK SKC VIS MIN 9999

Taf

Gewünschte Webcam nicht vorhanden? Dann fügen Sie eine hinzu. Sie wird dann so schnell wie möglich freigeschaltet
Url: Title: